Skip Page Navigation
NASA JPL Caltech
NASA Logo - Jet Propulsion Laboratory + View the NASA Portal
+ Center for Near-Earth Object Studies
JPL Home Earth Solar System Stars & Galaxies Technology
JPL Solar System Dynamics
BODIES ORBITS EPHEMERIDES TOOLS PHYSICAL DATA DISCOVERY FAQ SITE MAP
IMPORTANT: The SSD Announcement email list is now available. Major changes are coming in the near future, including possible hostname and/or URL changes. To be notified of such changes, subscribe to this email list.

Please visit this page for more details.


JPL Small-Body Database Browser
Search: [ help ]  
437328 (2013 RM5)
Classification: Inner Main-belt Asteroid          SPK-ID: 2437328
Ephemeris | Orbit Diagram | Orbital Elements | Mission Design | Physical Parameters | Discovery Circumstances ]

[ show orbit diagram ]
Orbital Elements at Epoch 2458600.5 (2019-Apr-27.0) TDB
Reference: JPL 14 (heliocentric ecliptic J2000)
 Element Value Uncertainty (1-sigma)   Units 
e .08675260400633095 6.3385e-08  
a 1.917708986185884 2.1936e-08 au
q 1.751342737907918 1.1443e-07 au
i 21.99429321967139 7.9001e-06 deg
node 190.194835934474 1.4848e-05 deg
peri 229.4527629079664 4.1338e-05 deg
M 346.8259244398756 3.7198e-05 deg
tp 2458635.996875806179
(2019-Jun-01.49687581)
0.00010025 TDB
period 970.001669711384
2.66
1.6643e-05
4.557e-08
d
yr
n .3711333817673891 6.368e-09 deg/d
Q 2.08407523446385 2.3839e-08 au
  Orbit Determination Parameters
   # obs. used (total)      91  
   data-arc span      4170 days (11.42 yr)  
   first obs. used      2005-09-01  
   last obs. used      2017-01-31  
   planetary ephem.      DE431  
   SB-pert. ephem.      SB431-N16  
   condition code      0  
   norm. resid. RMS      .68629  
   source      ORB  
   producer      Otto Matic  
   solution date      2017-Apr-09 13:18:15  

Additional Information
 Earth MOID = .789978 au 
 Jupiter MOID = 3.1488 au 
 T_jup = 3.835 
[ show covariance matrix ]

Ephemeris | Orbit Diagram | Orbital Elements | Mission Design | Physical Parameters | Discovery Circumstances ]

Physical Parameter Table
Parameter Symbol Value Units Sigma Reference Notes
absolute magnitude H 18.2   n/a MPO342199  

437328 (2013 RM5)          Discovered 2005-Sep-01 by LONEOS at Anderson Mesa
Reference: Last Updated: 2015-06-04
Ephemeris | Orbit Diagram | Orbital Elements | Mission Design | Physical Parameters | Discovery Circumstances ]
ABOUT SSD CREDITS/AWARDS PRIVACY/COPYRIGHT GLOSSARY LINKS
FirstGov 2019-Dec-13 21:34 UT
(server date/time)  
NASA Home Page
Site Manager:   Ryan S. Park
Webmaster  Alan B. Chamberlin